STARLINK-1144 (44933 NORAD) Tracking and Keplerian Element Data

This shows tracking and keplerian element data for the satellite.

Feedback or suggestion? Click here.




ElementValue
Catalog44933
NameSTARLINK-1144
Epoch Orbit844
Epoch Day53.25001157
Epoch Year2020
RAAN176.1973
Inclination52.9998
Eccentricity0.0001468
Argument of Perigee73.6776
Mean Anonmoly256.2085
Mean Motion15.05548336
Decay Rate0.00141822
L11 44933U 20001V 20053.25001157 .00141822 00000-0 95668-2 0 9991
L22 44933 52.9998 176.1973 0001468 73.6776 256.2085 15.05548336 8440

Live tracking and technical data element details for STARLINK-1144 (NORAD 44933). STARLINK-1144 can be tracked NOW for your location showing map with azimuth and elevation plus other details from your city location.

Track the satellite on the map from your city or location and see movement details for azimuth, elevation, latitude, longitude, range, height, and movement on the map or in text.







IsCatalogInMostPopularTable: catalog: 44933, numindb: 17
Update: records affected: 1



GetName: 44933 STARLINK-1144

Hit Count: updated at: Wed, 26 Feb 2020 16:33:51 GMT